Location: McFarlands Corners
(41.4117°N, 81.3382°W)
Time: 17:01:43
(UTC+00:00)

Vanguard 1 Rocket - Pass Details

Date: 16 February 2026
Orbit: 653 x 4214 km, 34.3° (Epoch: 8 March)

Event Time Altitude Azimuth Distance (km) Brightness Sun altitude
Rises 18:47:09 0° 232° (SW) 4,243 11.6 34.2°
Reaches altitude 10° 18:49:32 10° 227° (SW) 3,578 11.5 34.1°
Maximum altitude 18:58:48 51° 154° (SSE) 2,640 10.7 33.4°
Drops below altitude 10° 19:16:29 10° 86° (E) 6,528 11.5 32.0°
Sets 19:22:44 0° 83° (E) 7,972 11.9 31.4°
